FW0788 Weather Reports


Display with metric or nautical units.
time (UTC)temp
F
wind
direction
speed
MPH
gust
MPH
rain 1hr
in
rain 24hr
in
rain mn
in
humidity
%
barometer
mb
20260904161522 53 237 0.0 0.0 0.01 0.04 0.01 93 1005.9
20260904160021 52 237 0.0 0.0 0.00 0.03 0.00 93 1006.2
20260904154532 52 237 0.0 0.0 0.00 0.03 0.00 92 1006.5
20260904153015 52 237 0.0 0.0 0.00 0.03 0.00 92 1006.7
20260904151513 52 237 0.0 0.0 0.00 0.03 0.00 92 1007.0
20260904150013 52 237 0.0 0.0 0.00 0.03 0.00 92 1007.1
20260904144511 53 237 0.0 0.0 0.00 0.03 0.00 91 1007.1
20260904143015 53 237 0.0 0.0 0.00 0.03 0.00 91 1007.4
20260904141507 53 236 0.0 0.0 0.01 0.03 0.00 91 1007.7
20260904140012 53 156 0.0 0.0 0.02 0.03 0.00 90 1007.8
20260904134501 53 154 0.0 1.0 0.02 0.03 0.03 90 1008.0
20260904133115 53 165 0.0 0.0 0.02 0.03 0.03 89 1008.2
20260904131602 53 150 0.0 0.0 0.02 0.02 0.02 88 1008.4
20260904130057 54 169 0.0 0.0 0.00 0.01 0.01 85 1008.5
20260904124602 54 190 0.0 0.0 0.00 0.01 0.01 83 1008.6
20260904123057 54 136 0.0 6.0 0.00 0.01 0.01 82 1008.7
20260904121553 54 195 0.0 5.0 0.00 0.01 0.01 81 1008.9
20260904120058 53 175 0.0 4.0 0.00 0.01 0.01 82 1009.2
20260904114558 53 92 0.0 8.0 0.00 0.01 0.01 82 1009.4
20260904113049 53 186 0.0 0.0 0.00 0.01 0.01 80 1009.8
20260904111548 53 182 1.0 7.0 0.00 0.01 0.01 78 1009.6
20260904110048 54 111 0.0 11.0 0.00 0.01 0.01 76 1009.6
20260904104607 54 153 3.0 10.0 0.00 0.01 0.01 76 1009.6
20260904103046 54 65 0.0 12.0 0.00 0.01 0.01 74 1009.7
20260904101545 54 47 0.0 8.0 0.00 0.01 0.01 79 1009.6
20260904100059 54 202 0.0 7.0 0.00 0.01 0.01 81 1009.7
20260904094554 53 234 0.0 5.0 0.00 0.01 0.01 84 1009.9
20260904093043 53 233 0.0 8.0 0.00 0.01 0.01 85 1009.9
20260904091542 52 179 0.0 0.0 0.00 0.01 0.01 86 1010.1
20260904090042 51 186 0.0 0.0 0.00 0.01 0.01 87 1010.2
20260904084541 51 185 0.0 0.0 0.00 0.01 0.01 87 1010.3
20260904083044 51 178 0.0 0.0 0.00 0.01 0.01 86 1010.3
20260904081540 51 148 0.0 0.0 0.00 0.01 0.01 86 1010.0
20260904080041 51 184 0.0 0.0 0.01 0.01 0.01 87 1010.3
20260904074539 51 338 0.0 1.0 0.01 0.01 0.01 87 1010.5
20260904073038 51 151 2.0 9.0 0.01 0.01 0.01 86 1010.3
20260904071537 52 66 0.0 5.0 0.01 0.01 0.01 84 1010.2
20260904070042 54 184 0.0 13.0 0.00 0.00 0.00 80 1010.0
20260904064534 54 160 0.0 7.0 0.00 0.00 0.00 78 1009.8
20260904063040 55 174 1.0 14.0 0.00 0.00 0.00 78 1009.8
20260904061532 55 149 1.0 11.0 0.00 0.00 0.00 75 1009.8
20260904060100 55 124 0.0 7.0 0.00 0.00 0.00 74 1009.9
20260904054531 57 157 1.0 9.0 0.00 0.00 0.00 71 1009.9
20260904053057 57 137 1.0 10.0 0.00 0.00 0.00 68 1010.0
20260904051536 57 229 1.0 15.0 0.00 0.00 0.00 67 1010.0
20260904050035 58 267 2.0 17.0 0.00 0.00 0.00 64 1010.0
20260904044528 58 121 1.0 11.0 0.00 0.00 0.00 65 1010.0
20260904043026 57 141 0.0 15.0 0.00 0.00 0.00 67 1010.1
20260904041527 58 277 2.0 12.0 0.00 0.00 0.00 66 1010.2
20260904040025 58 161 2.0 15.0 0.00 0.00 0.00 63 1010.1
20260904034523 59 106 2.0 13.0 0.00 0.00 0.00 66 1010.4
20260904033022 58 180 2.0 12.0 0.00 0.00 0.00 67 1010.6
20260904031522 59 171 1.0 10.0 0.00 0.00 0.00 65 1010.7
20260904030022 59 34 2.0 16.0 0.00 0.00 0.00 61 1010.8
20260904024519 59 159 0.0 7.0 0.00 0.00 0.00 59 1011.1
20260904023016 58 205 1.0 12.0 0.00 0.00 0.00 61 1011.3
20260904021514 58 123 2.0 11.0 0.00 0.00 0.00 67 1011.7
20260904020011 57 175 3.0 14.0 0.00 0.00 0.00 65 1011.9
20260904014510 57 178 1.0 13.0 0.00 0.00 0.00 67 1012.1
20260904013007 57 151 1.0 11.0 0.00 0.00 0.00 66 1012.2
20260904011504 56 150 0.0 13.0 0.00 0.00 0.00 67 1012.2
20260904010006 56 133 5.0 13.0 0.00 0.00 0.00 68 1012.4
20260904004504 56 138 6.0 11.0 0.00 0.00 0.00 66 1012.3
20260904003057 55 153 6.0 18.0 0.00 0.00 0.00 69 1012.6
20260904001601 54 60 3.0 16.0 0.00 0.00 0.00 71 1012.6
20260904000113 55 128 3.0 9.0 0.00 0.00 0.00 70 1012.8
20260903234550 54 189 3.0 14.0 0.00 0.00 0.00 70 1012.8
20260903233126 55 190 4.0 11.0 0.00 0.00 0.00 69 1012.9
20260903231546 55 117 2.0 8.0 0.00 0.00 0.00 70 1012.7
20260903224543 53 177 2.0 14.0 0.00 0.00 0.00 73 1012.8
20260903223058 53 128 5.0 14.0 0.00 0.00 0.00 72 1012.9
20260903221531 53 132 3.0 10.0 0.00 0.00 0.00 74 1013.0
20260903220027 52 190 2.0 11.0 0.00 0.00 0.00 74 1012.7
20260903214522 51 188 1.0 7.0 0.00 0.01 0.00 76 1012.4
20260903213037 50 208 0.0 7.0 0.00 0.01 0.00 79 1012.4
20260903211514 49 226 0.0 1.0 0.00 0.01 0.00 80 1012.2
20260903210013 49 175 0.0 9.0 0.00 0.01 0.00 80 1012.0
20260903204508 49 178 0.0 5.0 0.00 0.35 0.00 81 1011.7
20260903203020 49 242 1.0 4.0 0.00 0.35 0.00 80 1011.6
20260903201507 49 160 1.0 7.0 0.00 0.35 0.00 79 1011.7
20260903200005 49 180 1.0 4.0 0.00 0.35 0.00 78 1011.5
20260903194501 49 57 2.0 10.0 0.00 0.35 0.00 78 1011.3
20260903193002 49 92 1.0 13.0 0.00 0.35 0.00 77 1011.1
20260903191600 49 176 2.0 6.0 0.00 0.35 0.00 78 1011.1
20260903190105 49 168 1.0 8.0 0.00 0.35 0.00 76 1011.1
20260903184558 49 267 1.0 8.0 0.00 0.35 0.00 76 1010.9
20260903183101 49 124 2.0 7.0 0.00 0.35 0.00 77 1011.1
20260903181557 49 192 1.0 7.0 0.00 0.35 0.00 76 1010.9
20260903180057 49 161 2.0 8.0 0.00 0.35 0.00 74 1010.8
20260903174554 49 195 2.0 10.0 0.00 0.39 0.00 72 1010.8
20260903173053 49 142 3.0 16.0 0.00 0.39 0.00 71 1010.9
20260903171601 49 114 4.0 11.0 0.00 0.39 0.00 71 1010.8
20260903164550 49 153 2.0 13.0 0.00 0.43 0.00 72 1010.8
20260903163048 49 78 4.0 15.0 0.00 0.43 0.00 73 1010.9